This demonstration page uses our WeatherBlox Daily Observations layout. Learn more.

Left ArrowRight Arrow

41.12389, -100.76542

Hourly Observations for July 27, 2016

Temp ( °F °C ) Dew Point ( °F °C ) Humidity (%) Winds ( mph kmh ) Pressure ( in mb ) Visibility ( mi km ) Precip ( " mm )
12:14 am 00:14 Mostly Cloudy 66 19 57 14 73 73 NNE 26 43 30.06 1018 10 16 0.00 0.00
12:22 am 00:22 Mostly Cloudy with Nearby Thunderstorms 64 17.8 58 14.4 81 81 NNE 32 52 30.09 1019 10 16 0.00 0.00
12:37 am 00:37 Cloudy 63 17.2 59 15 87 87 NE 18 30 30.06 1018 10 16 0.00 0.00
12:53 am 00:53 Mostly Cloudy with Light Rain 63 17.2 58 14.4 84 84 NNE 20 31 30.04 1017 10 16 0.00 0.03
1:53 am 01:53 Clear 63 17.2 59 15 87 87 E 12 19 30.05 1018 10 16 0.00 0.03
2:53 am 02:53 Clear 64 17.8 60 15.6 87 87 ESE 9 15 30.01 1016 10 16 0.00 0.00
3:53 am 03:53 Clear 61 16.1 60 15.6 97 97 E 6 9 29.99 1016 10 16 0.00 0.00
4:53 am 04:53 Clear 61 16.1 59 15 93 93 SSE 7 11 29.99 1016 10 16 0.00 0.00
5:53 am 05:53 Clear 60 15.6 58 14.4 93 93 W 6 9 30.02 1017 10 16 0.00 0.00
6:53 am 06:53 Sunny 60 15.6 58 14.4 93 93 WNW 6 9 30.02 1017 10 16 0.00 0.00
7:53 am 07:53 Sunny 63 17.2 60 15.6 90 90 SW 12 19 29.99 1016 10 16 0.00 0.00
8:53 am 08:53 Sunny 67 19.4 61 16.1 81 81 NW 5 7 30.01 1016 10 16 0.00 0.00
9:53 am 09:53 Sunny 69 20.6 61 16.1 76 76 NE 3 6 30.02 1017 10 16 0.00 0.00
10:53 am 10:53 Sunny 70 21.1 62 16.7 76 76 NW 13 20 30.08 1019 10 16 0.00 0.00
11:53 am 11:53 Sunny 78 25.6 63 17.2 60 60 WNW 6 9 30.04 1017 10 16 0.00 0.00
12:53 pm 12:53 Sunny 81 27.2 62 16.7 53 53 N 12 19 30.04 1017 10 16 0.00 0.00
1:53 pm 13:53 Sunny 83 28.3 61 16.1 48 48 E 18 30 29.96 1015 10 16 0.00 0.00
2:53 pm 14:53 Sunny 86 30 63 17.2 46 46 VRB 5 7 29.99 1016 10 16 0.00 0.00
3:53 pm 15:53 Sunny 87 30.6 61 16.1 42 42 NNE 9 15 29.98 1015 10 16 0.00 0.00
4:53 pm 16:53 Sunny 87 30.6 62 16.7 43 43 N 7 11 29.96 1015 10 16 0.00 0.00
5:53 pm 17:53 Sunny 88 31.1 60 15.6 39 39 Calm 29.97 1015 10 16 0.00 0.00
6:53 pm 18:53 Sunny 85 29.4 63 17.2 48 48 NNE 7 11 29.97 1015 10 16 0.00 0.00
7:53 pm 19:53 Sunny 82 27.8 64 17.8 55 55 NNE 6 9 29.97 1015 10 16 0.00 0.00
8:53 pm 20:53 Sunny 74 23.3 61 16.1 64 64 NE 8 13 30.01 1016 10 16 0.00 0.00
9:53 pm 21:53 Clear 69 20.6 62 16.7 78 78 E 3 6 30.05 1018 10 16 0.00 0.00
10:53 pm 22:53 Clear 67 19.4 62 16.7 84 84 NE 8 13 30.07 1018 10 16 0.00 0.00
11:53 pm 23:53 Clear 67 19.4 62 16.7 84 84 NE 12 19 30.04 1017 10 16 0.00 0.00

Powered by AerisWeather